DMSP 5D-3 F16 (USA 172)

Last updated on Sun Jun 21 2026 00:02:46 GMT+0000 (Coordinated Universal Time)

1 28054U 03048A 26171.42689955 -.00000038 00000+0 37443-5 0 9996 2 28054 98.9889 195.2768 0007887 132.0538 331.9039 14.14483136169944
UTC large
Height (km)
Speed (km/s)
/
Latitude / Longitude
Inclination (degrees)
Orbital Period (minutes)
Azimuth
Elevation
Range (km)
Doppler Factor

Next 0 passes for location: London (51.5072 / 0.1276)

No passes found over London.
DMSP 5D-3 F16 (USA 172)